User: anonymous   Login
Location: Ostrava
(49.8330°N, 18.2830°E)
Time: 02:45:54
(UTC+01:00)
Language:

Cosmos 2219 Rocket - Orbit

View from above orbital plane
View from above orbital plane
View from above satellite
View from above satellite

Ground track
Ground track

The orbit data is extracted from the following two-line orbital elements,

1 22220U 92076B   15032.21415692  .00000076  00000-0  62421-4 0  5148
2 22220 070.9997 084.0847 0011829 163.7192 252.6442 14.16346774148014
Epoch (UTC): 01 February 2015 05:08:23
Eccentricity: 0.0011829
inclination: 70.9997°
perigee height: 829 km
apogee height: 846 km
right ascension of ascending node: 84.0847°
argument of perigee: 163.7192°
revolutions per day: 14.16346774
mean anomaly at epoch: 252.6442°
orbit number at epoch: 14801

The dashed part of the orbit path shows where the satellite is in the earth's shadow,  

DLR